This is the latest recevied weather packets stored in our database for station/object N9ALD. If no packets are shown the sender has not sent any weather packets the latest 10 day(s).
| Time | Temp. | Humidity | Pressure | Rain* | Wind** | Luminosity | Snow |
|---|---|---|---|---|---|---|---|
| 1777383601 | 14.44° C | 85% | 1010.9 hPa | 0 mm | - | 140 W/m² | - |
| 1777383298 | 14.44° C | 87% | 1010.8 hPa | 0 mm | - | 160 W/m² | - |
| 1777382994 | 15° C | 87% | 1010.8 hPa | 0 mm | - | 144 W/m² | - |
| 1777382690 | 15° C | 87% | 1010.8 hPa | 0 mm | - | 166 W/m² | - |
| 1777382386 | 15° C | 88% | 1010.4 hPa | 0 mm | - | 170 W/m² | - |
| 1777382083 | 15° C | 89% | 1010.6 hPa | 0 mm | - | 150 W/m² | - |
| 1777381779 | 15° C | 88% | 1010.5 hPa | 0 mm | - | 170 W/m² | - |
| 1777381479 | 15° C | 90% | 1010.5 hPa | 0 mm | - | 144 W/m² | - |
| 1777381175 | 14.44° C | 89% | 1010.3 hPa | 0 mm | - | 145 W/m² | - |
| 1777380873 | 14.44° C | 90% | 1010.4 hPa | 0 mm | - | 141 W/m² | - |
| 1777380570 | 14.44° C | 90% | 1010.4 hPa | 0 mm | - | 143 W/m² | - |
| 1777380266 | 14.44° C | 92% | 1010.2 hPa | 0 mm | - | 123 W/m² | - |
| 1777379962 | 14.44° C | 92% | 1010.1 hPa | 0 mm | - | 85 W/m² | - |
| 1777379658 | 14.44° C | 92% | 1010.1 hPa | 0 mm | - | 91 W/m² | - |
| 1777379353 | 14.44° C | 93% | 1010.1 hPa | 0 mm | - | 89 W/m² | - |
| 1777379049 | 14.44° C | 93% | 1009.7 hPa | 0 mm | - | 86 W/m² | - |
| 1777378743 | 14.44° C | 94% | 1009.7 hPa | 0 mm | - | 63 W/m² | - |
| 1777378441 | 14.44° C | 94% | 1009.5 hPa | 0 mm | - | 65 W/m² | - |
| 1777378135 | 14.44° C | 94% | 1009.3 hPa | 0 mm | - | 41 W/m² | - |
| 1777377829 | 14.44° C | 95% | 1009.3 hPa | 0 mm | - | 26 W/m² | - |
| 1777377529 | 14.44° C | 95% | 1009.3 hPa | 0 mm | - | 28 W/m² | - |
| 1777377224 | 14.44° C | 95% | 1008.9 hPa | 0 mm | - | 34 W/m² | - |
| 1777376923 | 14.44° C | 96% | 1008.8 hPa | 0 mm | - | 32 W/m² | - |
| 1777376619 | 14.44° C | 96% | 1008.9 hPa | 0 mm | - | 23 W/m² | - |
| 1777376317 | 14.44° C | 96% | 1008.8 hPa | 0 mm | - | 16 W/m² | - |
* Rain latest hour (hover to see other rain measurements)
** Current wind speed in m/s (hover to see current wind gust speed)